Flag for U.S.A. Weather past 2 weeks in Victorville, California, U.S.A.

Now
90 °F

Sunny.


Feels Like: 86 °F
Forecast: 56 / 87 °F
Wind: 22 mph from South

Location: George Air Force Base / Victorvi

Current Time: Sep 1, 2015 at 5:23:12 PM

Latest Report: Sep 1, 2015 at 4:55 PM


Visibility: 10 mi

Pressure: 29.90 "Hg (27.25 "Hg at 830m altitude)

Humidity: 8%

Dew point: 21 °F

Location of VictorvilleLocation

Historic Weather in Victorville — Graph

°F

Victorville temperature yesterday

Maximum temperature yesterday: 95 °F (at 3:35 PM)
Minimum temperature yesterday: 64 °F (at 5:15 AM)
Average temperature yesterday: 78 °F

Past Weeks' High & Low Weather Summary

 TemperatureHumidityPressure
High102 °F (Aug 18, 2:55 PM)60% (Aug 21, 6:15 AM)30.14 "Hg (Aug 21, 6:15 AM)
Low61 °F (Sep 1, 6:35 AM)8% (Aug 20, 2:15 PM)29.83 "Hg (Aug 20, 3:55 PM)
Average83 °F27%29.97 "Hg
* Reported Aug 17 4:15 PM — Sep 1 4:15 PM, Victorville, Weather by CustomWeather, © 2015

Note: Actual official high and low records may vary slightly from our data, if they occured in-between our weather recording intervals... More about our weather records

Advertising

Victorville weather history for previous 24 hours

 ConditionsComfort  
Time TempWeatherWind HumidityBarometerVisibility
4:15 PM
Tue, Sep 1
91 °FSunny.23 mph9%29.91 "Hg10 mi
3:55 PM91 °FSunny.23 mph9%29.91 "Hg10 mi
2:15 PM93 °FSunny.16 mph8%29.93 "Hg10 mi
1:55 PM91 °FSunny.16 mph9%29.94 "Hg10 mi
1:35 PM91 °FSunny.18 mph8%29.94 "Hg10 mi
1:15 PM91 °FSunny.16 mph9%29.95 "Hg10 mi
12:55 PM91 °FSunny.17 mph8%29.95 "Hg10 mi
12:35 PM91 °FSunny.16 mph8%29.95 "Hg10 mi
12:15 PM90 °FSunny.15 mph9%29.96 "Hg10 mi
11:55 AM88 °FSunny.No wind11%29.96 "Hg10 mi
11:35 AM86 °FSunny.No wind11%29.96 "Hg10 mi
11:15 AM84 °FSunny.No wind12%29.97 "Hg10 mi
10:55 AM82 °FSunny.No wind13%29.98 "Hg10 mi
10:35 AM82 °FSunny.No wind14%29.98 "Hg10 mi
10:15 AM81 °FSunny.No wind16%29.98 "Hg10 mi
9:55 AM81 °FSunny.No wind16%29.98 "Hg10 mi
9:35 AM79 °FSunny.No wind20%29.98 "Hg10 mi
9:15 AM77 °FSunny.No wind22%29.98 "Hg10 mi
8:15 AM72 °FSunny.No wind29%29.97 "Hg10 mi
7:55 AM70 °FSunny.No wind31%29.97 "Hg10 mi
7:35 AM66 °FSunny.No wind37%29.97 "Hg10 mi
7:15 AM64 °FClear.No wind43%29.96 "Hg10 mi
6:55 AM63 °FClear.No wind45%29.96 "Hg10 mi
6:35 AM61 °FClear.No wind52%29.96 "Hg10 mi
6:15 AM64 °FClear.No wind46%29.95 "Hg10 mi
5:55 AM63 °FClear.9 mph49%29.94 "Hg10 mi
5:35 AM63 °FClear.No wind45%29.94 "Hg10 mi
5:15 AM63 °FClear.No wind39%29.94 "Hg10 mi
4:55 AM64 °FClear.No wind32%29.94 "Hg10 mi
4:35 AM64 °FClear.No wind37%29.95 "Hg10 mi
4:15 AM63 °FClear.No wind52%29.95 "Hg10 mi
3:55 AM63 °FClear.No wind52%29.95 "Hg10 mi
3:35 AM63 °FClear.No wind52%29.95 "Hg10 mi
3:15 AM66 °FClear.No wind49%29.94 "Hg10 mi
2:55 AM66 °FClear.No wind49%29.94 "Hg10 mi
2:35 AM66 °FClear.No wind46%29.94 "Hg10 mi
2:15 AM64 °FClear.No wind49%29.95 "Hg10 mi
1:55 AM66 °FClear.No wind43%29.95 "Hg10 mi
1:35 AM68 °FClear.No wind40%29.95 "Hg10 mi
1:15 AM66 °FClear.No wind46%29.95 "Hg7 mi
12:55 AM68 °FClear.No wind40%29.96 "Hg10 mi
12:35 AM68 °FClear.No wind46%29.96 "Hg10 mi
12:15 AM68 °FClear.No wind49%29.96 "Hg10 mi
11:55 PM
Mon, Aug 31
70 °FClear.No wind46%29.95 "Hg10 mi
11:35 PM72 °FClear.No wind44%29.96 "Hg10 mi
11:15 PM72 °FClear.No wind44%29.96 "Hg10 mi
10:55 PM72 °FClear.No wind44%29.95 "Hg10 mi
10:35 PM72 °FClear.No wind44%29.95 "Hg10 mi
10:15 PM73 °FClear.No wind41%29.95 "Hg10 mi
9:55 PM73 °FClear.No wind41%29.94 "Hg10 mi
8:55 PM77 °FClear.12 mph34%29.93 "Hg10 mi
7:55 PM81 °FSunny.12 mph28%29.90 "Hg10 mi
7:35 PM81 °FSunny.10 mph26%29.89 "Hg10 mi
7:15 PM82 °FSunny.14 mph21%29.89 "Hg10 mi
6:55 PM84 °FSunny.17 mph19%29.88 "Hg10 mi
6:35 PM88 °FSunny.14 mph13%29.88 "Hg10 mi
6:15 PM88 °FSunny.21 mph12%29.88 "Hg10 mi
5:55 PM90 °FSunny.20 mph10%29.88 "Hg10 mi
5:35 PM90 °FSunny.18 mph9%29.88 "Hg10 mi
5:15 PM91 °FSunny.18 mph9%29.88 "Hg10 mi
Weather by CustomWeather, © 2015

See weather overviewHow to use our weather pages